Meteo Giornale » Osservazioni meteo Francia » Le Puy
ore: 21:00 - Osservazioni Meteo Le Puy
Lat. 45° 5' N Lon. 3° 46' E Alt. 832 metri s.l.m.
18 °C
Sereno
Temp. 24 Ore
16 °C
23 °C
Nord
5.5 Km/h
Dew point 8 °C
Umidità 51 %
Visibilità 10 Km
Il sole sorge alle ore 07:05
Il sole tramonta alle ore 20:24
| Data e Ora | Cielo e Fenomeni | T °C | DP °C | Um. % | Pres. hPa | Vis. km | Vento km/h | |
|---|---|---|---|---|---|---|---|---|
| Oggi h: 21:00 | Sereno | 18 | 8 | 51 | 1023 | 10 | N 5.5 | |
| Oggi h: 20:30 | Sereno | 19 | 8 | 48 | 1023 | 10 | O/NO 7.4 | |
| Oggi h: 20:00 | Sereno | 19 | 8 | 48 | 1023 | 10 | N/NO 13 | |
| Oggi h: 19:30 | Sereno | 21 | 9 | 46 | 1023 | 10 | NO 14.8 | |
| Oggi h: 19:00 | Sereno | 21 | 8 | 43 | 1023 | 10 | N/NO 20.3 | |
| Oggi h: 18:30 | Sereno | 22 | 9 | 43 | 1023 | 10 | NO 18.5 | |
| Oggi h: 18:00 | Sereno | 23 | 8 | 38 | 1023 | 10 | NO 18.5 | |
| Oggi h: 17:30 | Sereno | 23 | 8 | 38 | 1023 | 10 | N/NO 16.7 | |
| Oggi h: 17:00 | Sereno | 23 | 8 | 38 | 1023 | 10 | NO 16.7 | |
| Oggi h: 16:30 | Sereno | 23 | 9 | 40 | 1023 | 10 | NO 14.8 | |
| Oggi h: 16:00 | Sereno | 22 | 9 | 43 | 1023 | 10 | NO 11.1 | |
| Oggi h: 15:30 | Sereno | 23 | 9 | 40 | 1023 | 10 | N/NO 13 | |
| Oggi h: 15:00 | Sereno | 22 | 10 | 46 | 1023 | 10 | NO 13 | |
| Oggi h: 14:30 | Sereno | 22 | 9 | 43 | 1023 | 10 | NO 20.3 | |
| Oggi h: 14:00 | Sereno | 22 | 9 | 43 | 1023 | 10 | O/NO 16.7 | |
| Oggi h: 13:30 | Sereno | 21 | 8 | 43 | 1023 | 10 | NO 18.5 | |
| Oggi h: 13:00 | Sereno | 20 | 9 | 49 | 1023 | 10 | O/NO 20.3 | |
| Oggi h: 12:30 | Sereno | 20 | 9 | 49 | 1023 | 10 | O/NO 16.7 | |
| Oggi h: 12:00 | Sereno | 20 | 9 | 49 | 1023 | 10 | O/NO 16.7 | |
| Oggi h: 11:30 | Sereno | 20 | 8 | 45 | 1023 | 10 | O 13 | |
| Oggi h: 11:00 | Sereno | 19 | 11 | 59 | 1023 | 10 | O 9.3 | |
| Oggi h: 10:30 | Sereno | 17 | 12 | 72 | 1023 | 10 | O 11.1 | |
| Oggi h: 10:00 | Sereno | 17 | 12 | 72 | 1023 | 10 | O/NO 9.3 | |
| Oggi h: 09:30 | Poco Nuvoloso | 16 | 12 | 77 | 1023 | 10 | O/NO 11.1 | |
| Oggi h: 09:00 | Nuvoloso | 16 | 14 | 87 | 1023 | 10 | N 3.7 | |



